Flag for Japan Weather past 2 weeks in Yokosuka, Japan

Now
57 °F

Passing clouds.


Feels Like: 55 °F
Forecast: 55 / 64 °F
Wind: 9 mph from Southeast

Location: Tokyo International Airport


UV Index: 7 (High)

Visibility: N/A


Pressure: 30.07 "Hg

Humidity: 72%

Dew point: 48 °F

Location of YokosukaLocation

Historic Weather in Yokosuka

°F

Yokosuka temperature yesterday

Maximum temperature yesterday: 63 °F (at 12:00 PM)
Minimum temperature yesterday: 55 °F (at 12:00 AM)
Average temperature yesterday: 58 °F

Past Weeks' High & Low Weather Summary

 TemperatureHumidityPressure
High73 °F (Apr 16, 1:30 PM)100% (Apr 21, 6:00 AM)30.24 "Hg (Apr 21, 6:00 AM)
Low45 °F (Apr 20, 4:30 AM)16% (Apr 11, 11:48 AM)29.62 "Hg (Apr 10, 2:30 PM)
Average57 °F62%29.97 "Hg
* Reported Apr 8 9:00 PM — Apr 23 9:30 PM, Yokosuka, Weather by CustomWeather, © 2014

Note: Actual official high and low records may vary slightly from our data, if they occured in-between our weather recording intervals... More about our weather records

Advertising

Historic Weather Conditions — Data for Previous 24 hours

 ConditionsComfort  
Time TempWeatherWind HumidityBarometerVisibility
9:30 PM
Apr 23
59 °FPassing clouds.12 mph68%30.07 "HgN/A
9:00 PM59 °FPassing clouds.13 mph68%30.07 "HgN/A
8:30 PM61 °FPassing clouds.10 mph68%30.04 "HgN/A
8:00 PM61 °FPassing clouds.13 mph55%30.01 "HgN/A
7:30 PM61 °FPassing clouds.17 mph55%30.01 "HgN/A
7:00 PM61 °FPassing clouds.17 mph55%29.98 "HgN/A
6:30 PM63 °FPassing clouds.16 mph49%29.98 "HgN/A
6:00 PM63 °FPassing clouds.18 mph52%29.95 "HgN/A
5:30 PM64 °FPassing clouds.17 mph49%29.95 "HgN/A
5:00 PM64 °FPassing clouds.18 mph46%29.95 "HgN/A
4:30 PM64 °FPassing clouds.16 mph46%29.95 "HgN/A
4:00 PM66 °FPassing clouds.16 mph40%29.92 "HgN/A
3:30 PM66 °FPassing clouds.14 mph30%29.92 "HgN/A
3:00 PM66 °FPassing clouds.12 mph28%29.92 "HgN/A
2:30 PM66 °FPassing clouds.12 mph30%29.92 "HgN/A
2:00 PM66 °FPassing clouds.12 mph35%29.92 "HgN/A
1:30 PM66 °FPassing clouds.13 mph35%29.92 "HgN/A
1:00 PM64 °FPassing clouds.12 mph37%29.92 "HgN/A
12:30 PM64 °FPassing clouds.12 mph46%29.95 "HgN/A
11:30 AM63 °FPassing clouds.12 mph52%29.95 "HgN/A
11:00 AM63 °FPassing clouds.12 mph56%29.95 "HgN/A
10:30 AM63 °FPassing clouds.10 mph49%29.98 "HgN/A
10:00 AM61 °FPassing clouds.8 mph59%29.98 "HgN/A
9:30 AM61 °FPassing clouds.7 mph59%29.98 "HgN/A
9:00 AM61 °FPassing clouds.7 mph59%29.98 "HgN/A
8:30 AM59 °FScattered clouds.7 mph63%29.98 "HgN/A
8:00 AM59 °FScattered clouds.7 mph63%29.98 "HgN/A
7:30 AM57 °FPartly sunny.7 mph67%29.98 "HgN/A
7:00 AM57 °FPartly sunny.6 mph63%29.98 "HgN/A
6:30 AM55 °FPartly sunny.7 mph72%29.98 "HgN/A
6:00 AM55 °FBroken clouds.5 mph77%29.95 "HgN/A
5:30 AM55 °FPartly sunny.7 mph77%29.95 "HgN/A
5:00 AM55 °FPartly sunny.3 mph77%29.95 "HgN/A
4:30 AM55 °FPassing clouds.3 mph72%29.95 "HgN/A
4:00 AM55 °FPassing clouds.5 mph77%29.92 "HgN/A
3:30 AM55 °FPartly cloudy.3 mph77%29.92 "HgN/A
3:00 AM55 °FPartly cloudy.7 mph72%29.92 "HgN/A
2:30 AM55 °FLight rain. Partly cloudy.7 mph82%29.92 "HgN/A
2:00 AM54 °FLight rain. Partly cloudy.7 mph88%29.92 "HgN/A
1:30 AM54 °FLight rain. Passing clouds.12 mph88%29.92 "HgN/A
1:00 AM54 °FLight rain. Partly cloudy.14 mph88%29.92 "HgN/A
12:30 AM57 °FLight rain. Partly cloudy.6 mph88%29.92 "Hg4 mi
12:00 AM57 °FLight rain. Partly cloudy.5 mph88%29.92 "Hg4 mi
11:30 PM
Apr 22
57 °FLight rain. Partly cloudy.3 mph88%29.92 "Hg4 mi
11:00 PM57 °FLight rain. Partly cloudy.5 mph88%29.92 "Hg5 mi
10:30 PM57 °FLight rain. Partly cloudy.3 mph88%29.92 "Hg5 mi
10:00 PM57 °FLight rain. Partly cloudy.2 mph88%29.92 "Hg4 mi
Weather by CustomWeather, © 2014

See weather overview